Flag for U.S.A. Weather past 2 weeks in Rapid City, South Dakota, U.S.A.

16 °F

Light snow. Mostly cloudy.

Feels Like: 3 °F
Forecast: 10 / 23 °F
Wind: 13 mph from North

Location: Ellsworth Air Force Base

Current Time: Nov 26, 2015 at 2:25:52 AM

Latest Report: Nov 26, 2015 at 1:58 AM

Visibility: 8 mi

Pressure: 30.43 "Hg (26.82 "Hg at 977m altitude)

Humidity: 90%

Dew point: 14 °F

Location of Rapid CityLocation

Historic Weather in Rapid City — Graph


Rapid City temperature yesterday

Maximum temperature yesterday: 36 °F (at 12:58 AM)
Minimum temperature yesterday: 17 °F (at 11:58 PM)
Average temperature yesterday: 26 °F

Past Weeks' High & Low Weather Summary

High71 °F (Nov 15, 12:58 PM)100% (Nov 18, 9:58 PM)30.56 "Hg (Nov 18, 9:58 PM)
Low12 °F (Nov 21, 6:58 AM)10% (Nov 15, 1:58 PM)29.20 "Hg (Nov 18, 5:58 AM)
Average36 °F55%29.95 "Hg
* Reported Nov 11 12:58 AM — Nov 26 12:58 AM, Rapid City, Weather by CustomWeather, © 2015

Note: Actual official high and low records may vary slightly from our data, if they occured in-between our weather recording intervals... More about our weather records


Rapid City weather history for previous 24 hours

Time TempWeatherWind HumidityBarometerVisibility
12:58 AM
Thu, Nov 26
17 °FLight snow. Ice fog.16 mph88%30.42 "Hg5 mi
11:58 PM
Wed, Nov 25
17 °FLight snow. Low clouds.17 mph88%30.42 "Hg10 mi
10:58 PM18 °FLight snow. Low clouds.16 mph86%30.42 "Hg10 mi
9:58 PM18 °FLight snow. Low clouds.14 mph88%30.41 "Hg10 mi
8:58 PM19 °FLight snow. Low clouds.15 mph79%30.39 "Hg9 mi
8:03 PM19 °FLight snow. Mostly cloudy.23 mph79%30.23 "Hg10 mi
6:58 PM20 °FLight snow. Mostly cloudy.21 mph81%30.32 "Hg10 mi
5:58 PM21 °FLight snow. Mostly cloudy.21 mph83%30.31 "Hg10 mi
4:58 PM23 °FLight snow. Mostly cloudy.22 mph86%30.15 "Hg10 mi
3:58 PM24 °FLight snow. Overcast.22 mph77%30.24 "Hg4 mi
2:58 PM25 °FOvercast.24 mph72%30.22 "Hg10 mi
1:58 PM26 °FOvercast.22 mph70%30.18 "Hg10 mi
12:59 PM27 °FLight snow. Overcast.25 mph69%30.06 "Hg10 mi
11:58 AM28 °FOvercast.28 mph68%30.14 "Hg10 mi
11:03 AM28 °FMore clouds than sun.24 mph69%30.05 "Hg10 mi
10:58 AM29 °FMostly cloudy.29 mph70%30.13 "Hg10 mi
9:58 AM30 °FOvercast.24 mph71%30.12 "Hg10 mi
8:58 AM30 °FOvercast.28 mph75%30.09 "Hg10 mi
7:58 AM30 °FOvercast.22 mph77%30.07 "Hg10 mi
6:58 AM31 °FOvercast.24 mph76%30.02 "Hg10 mi
5:58 AM30 °FPassing clouds.23 mph77%29.98 "Hg10 mi
3:58 AM32 °FOvercast.22 mph71%29.90 "Hg10 mi
2:58 AM32 °FPassing clouds.28 mph69%29.87 "Hg10 mi
Weather by CustomWeather, © 2015

See weather overviewHow to use our weather pages